Content
SEND FEEDBACK

Daily
Averages
Monthly
Summary
Ecuador

ALFARO, ECUADOR


Home > South America > Ecuador
Elevation: 30 feet     Latitude: 02 01N     Longitude: 079 52W

WEATHER
 
SELECT A DAY
Number of Records: 146,767;   Date Range: 6/30/96 - 10/21/14
 
SHARE

PRINT THIS DATA

[ ← Previous Day ]
WEATHER ALMANAC - JANUARY 31, 2013
[ Next Day → ]
[ °C ]   °F
Weather ElementAverageHighLow
Temperature81.6 °F87.8 °F (1:00 pm)78.8 °F (4:00 am)
Dewpoint66.1 °F71.6 °F (4:00 pm) (7:00 pm)
Humidity63.7 %74 % (5:00 pm)54 % (2:00 am)
Barometer29.79 in29.86 in (11:00 pm)29.71 in (5:00 pm)
Wind Speed3.5 mph9.2 mph (7:00 pm)
Wind Gust16.1 mph (10:00 am)
Weather ElementAverage
Visibility6.1 mi
Wind DirectionSSW (218.1 °)

Weather ElementTotal
Precipitation---
Cooling Degree Days18.3 (Base 65)
Growing Degree Days33.3 (Base 50)
Averaged from 27 records on January 31, 2013
WEATHER CONDITIONS BREAKOUT
WIND DIRECTION BREAKOUT
WEATHER BY HOUR - JANUARY 31, 2013
[ °C ]   °F
Local TimeTemperatureDewpointHumidityBarometerVisibilityWind DirectionWind SpeedGust SpeedPrecipitationEventsConditions
1:00 AM80.6 °F66.2 °F61 %29.80 in6.2 miSW (230°)3.5 mphMostly Cloudy
2:00 AM80.6 °F62.6 °F54 %29.80 in6.2 miWest (260°)3.5 mphMostly Cloudy
3:00 AM80.6 °F68.0 °F65 %29.77 in6.2 miWNW (290°)1.2 mphMostly Cloudy
4:00 AM78.8 °F68.0 °F69 %29.77 in6.2 miNNW (340°)2.3 mphMostly Cloudy
5:00 AM78.8 °F68.0 °F69 %29.77 in6.2 miNNW (330°)1.2 mphMostly Cloudy
6:00 AM78.8 °F68.0 °F69 %29.77 in6.2 miNNW (330°)1.2 mphMostly Cloudy
7:00 AM78.8 °F68.0 °F69 %29.80 in6.2 miNNW (330°)2.3 mphScattered Clouds
7:00 AM79.0 °F67.0 °F59 %29.80 in6.0 miNNW (330°)2.3 mphHaze
8:00 AM78.8 °F68.0 °F69 %29.83 in6.2 miNNW (340°)3.5 mphMostly Cloudy
9:00 AM80.6 °F68.0 °F65 %29.83 in6.2 miWNW (300°)3.5 mphOvercast
10:00 AM81.0 °F67.0 °F54 %29.85 in6.0 miNNW (330°)3.5 mphHaze
10:00 AM80.6 °F68.0 °F65 %29.83 in6.2 miNNW (330°)3.5 mph16.1 mphMostly Cloudy
11:00 AM82.4 °F68.0 °F62 %29.83 in6.2 miNNE (20°)3.5 mphMostly Cloudy
12:00 PM86.0 °F69.8 °F58 %29.80 in6.2 miENE (70°)4.6 mphMostly Cloudy
1:00 PM87.8 °F69.8 °F55 %29.80 in6.2 miNE (50°)2.3 mphScattered Clouds
2:00 PM86.0 °F69.8 °F58 %29.77 in6.2 miVariable2.3 mphOvercast
3:00 PM86.0 °F68.0 °F55 %29.74 in6.2 miVariable3.5 mphOvercast
4:00 PM83.0 °F71.0 °F60 %29.74 in5.0 mi°2.3 mphRainRain
4:00 PM84.2 °F71.6 °F66 %29.74 in5.0 miVariable2.3 mphRainRain
5:00 PM80.6 °F71.6 °F74 %29.71 in6.2 miSSW (200°)5.8 mphRainLight Rain
6:00 PM80.6 °F0.0 °F29.74 in6.2 miSW (230°)6.9 mphRainLight Rain
7:00 PM81.0 °F70.0 °F63 %29.75 in6.0 miSSW (210°)9.2 mphOvercast
7:00 PM82.4 °F69.8 °F66 %29.77 in6.2 miSW (230°)5.8 mphMostly Cloudy
8:00 PM82.4 °F69.8 °F66 %29.80 in6.2 miSW (230°)4.6 mphMostly Cloudy
9:00 PM82.4 °F69.8 °F66 %29.83 in6.2 miSW (220°)5.8 mphMostly Cloudy
10:00 PM80.6 °F69.8 °F70 %29.83 in6.2 miSW (230°)1.2 mphMostly Cloudy
11:00 PM80.6 °F69.8 °F70 %29.86 in6.2 miWSW (240°)3.5 mphMostly Cloudy
Hourly data recorded from SEGU, located miles away from Alfaro, Ecuador







STORIES FROM OUR PARTNERS